Shannon, GA

8:32 AM EDT on August 27, 2016 (GMT -0400)
Russell

Weather History for KRMG - January, 2014

Change the Weather History Date:

Sunday, January 5, 2014

  Actual Average Record
Temperature  
Mean Temperature 43 °F 41 °F  
Max Temperature 50 °F 51 °F 73 °F (2005)
Min Temperature 36 °F 30 °F 12 °F (1999)
Degree Days  
Heating Degree Days 22 24  
Month to date heating degree days 149 120  
Since 1 July heating degree days 1414 1420  
Moisture  
Dew Point 39 °F    
Average Humidity 85    
Maximum Humidity 100    
Minimum Humidity 70    
Precipitation  
Precipitation 0.21 in 0.13 in 0.98 in (2009)
Month to date precipitation 0.47 0.51  
Year to date precipitation 0.47 0.51  
Snow  
Snow 0.00 in - - ()
Month to date snowfall T  
Since 1 July snowfall T  
Snow Depth 0.00 in    
Sea Level Pressure  
Sea Level Pressure 29.95 in    
Wind  
Wind Speed 4 mph (SSW)    
Max Wind Speed 26 mph    
Max Gust Speed 39 mph    
Visibility 8 miles    
Events Rain    
T = Trace of Precipitation, MM = Missing Value Source: NWS Daily Summary

Daily Weather History Graph

Daily Weather History Graph

Search for Another Location

Airport or City:

Trip Planner

Search our weather history database for the weather conditions in past years. The results will help you decide how hot, cold, wet, or windy it might be!

Date:

Astronomy

Jan. 05, 2014 Rise Set
Actual Time 7:47 AM EST 5:44 PM EST
Civil Twilight 7:19 AM EST 6:12 PM EST
Nautical Twilight 6:48 AM EST 6:43 PM EST
Astronomical Twilight 6:18 AM EST 7:14 PM EST
Moon 10:42 AM EST (1/5) 10:56 PM EST (1/5)
Length of Visible Light 10h 52m
Length of Day
9h 57m
Waxing Crescent, 24% of the Moon is Illuminated
Jan 5
Waxing Crescent
Jan 7
First Quarter
Jan 15
Full
Jan 24
Last Quarter
Jan 30
New

Hourly Weather History & Observations

Time (EST) Temp. Windchill Dew Point Humidity Pressure Visibility Wind Dir Wind Speed Gust Speed Precip Events Conditions
12:53 AM 37.0 °F 32.4 °F 28.9 °F 73% 30.17 in 10.0 mi SE 5.8 mph - N/A   Overcast
1:53 AM 37.0 °F - 30.0 °F 76% 30.17 in 10.0 mi Calm Calm - N/A   Overcast
2:53 AM 36.0 °F - 30.9 °F 82% 30.16 in 10.0 mi Calm Calm - N/A   Overcast
3:53 AM 36.0 °F - 30.9 °F 82% 30.15 in 10.0 mi Calm Calm - N/A   Overcast
4:40 AM 35.6 °F - 30.2 °F 81% 30.15 in 10.0 mi Calm Calm - N/A   Overcast
4:53 AM 36.0 °F - 30.9 °F 82% 30.15 in 10.0 mi Calm Calm - N/A   Overcast
5:53 AM 36.0 °F - 32.0 °F 86% 30.13 in 10.0 mi Calm Calm - N/A   Overcast
6:53 AM 37.0 °F - 32.0 °F 82% 30.11 in 10.0 mi Calm Calm - N/A   Overcast
7:29 AM 37.4 °F - 32.0 °F 81% 30.10 in 10.0 mi Calm Calm - N/A   Overcast
7:53 AM 36.0 °F - 33.1 °F 89% 30.11 in 10.0 mi Calm Calm - N/A   Overcast
8:53 AM 37.0 °F - 33.1 °F 86% 30.10 in 8.0 mi Calm Calm - N/A   Overcast
9:53 AM 37.9 °F - 34.0 °F 86% 30.10 in 7.0 mi Calm Calm - N/A   Overcast
10:53 AM 41.0 °F 38.0 °F 37.0 °F 86% 30.06 in 8.0 mi Variable 4.6 mph - N/A   Overcast
11:53 AM 43.0 °F 38.2 °F 37.9 °F 82% 30.02 in 8.0 mi SE 8.1 mph - N/A   Overcast
12:22 PM 44.6 °F 41.4 °F 39.2 °F 81% 29.98 in 8.0 mi Variable 5.8 mph - N/A   Overcast
12:53 PM 45.0 °F 41.2 °F 39.9 °F 82% 29.96 in 9.0 mi SSE 6.9 mph - N/A   Overcast
1:53 PM 48.0 °F - 41.0 °F 77% 29.91 in 10.0 mi SSE 6.9 mph - N/A   Overcast
2:53 PM 48.0 °F - 41.0 °F 77% 29.90 in 10.0 mi SSW 3.5 mph - N/A   Overcast
3:44 PM 48.2 °F - 41.0 °F 76% 29.89 in 10.0 mi South 5.8 mph - N/A   Overcast
3:53 PM 48.9 °F - 41.0 °F 74% 29.88 in 10.0 mi SSE 5.8 mph - N/A   Overcast
4:53 PM 48.9 °F - 42.1 °F 77% 29.85 in 10.0 mi SSE 11.5 mph 18.4 mph N/A   Mostly Cloudy
5:18 PM 48.2 °F - 42.8 °F 82% 29.85 in 10.0 mi South 9.2 mph - N/A   Scattered Clouds
5:33 PM 48.2 °F - 42.8 °F 82% 29.85 in 10.0 mi South 8.1 mph - N/A   Mostly Cloudy
5:53 PM 48.0 °F - 43.0 °F 83% 29.84 in 10.0 mi SSE 5.8 mph - N/A   Overcast
6:53 PM 48.0 °F - 44.1 °F 86% 29.81 in 10.0 mi SE 5.8 mph - N/A   Overcast
7:10 PM 48.2 °F - 44.6 °F 87% 29.81 in 10.0 mi SE 6.9 mph - N/A   Overcast
7:53 PM 48.0 °F - 45.0 °F 89% 29.80 in 8.0 mi SE 5.8 mph - 0.00 in Rain Light Rain
8:53 PM 46.9 °F - 46.0 °F 97% 29.77 in 7.0 mi Calm Calm - 0.05 in Rain Light Rain
9:38 PM 48.2 °F - 46.4 °F 93% 29.74 in 5.0 mi Variable 3.5 mph - 0.00 in Rain Light Rain
9:53 PM 48.9 °F - 48.9 °F 100% 29.73 in 5.0 mi Calm Calm - 0.01 in Rain Light Rain
10:31 PM 48.2 °F - 46.4 °F 93% 29.77 in 2.0 mi WNW 23.0 mph 39.1 mph 0.08 in Rain Rain
10:36 PM 48.2 °F - 44.6 °F 87% 29.78 in 3.0 mi WNW 19.6 mph 34.5 mph 0.10 in Rain Light Rain
10:53 PM 46.0 °F 40.2 °F 44.1 °F 93% 29.78 in 7.0 mi WNW 12.7 mph 24.2 mph 0.11 in Rain Light Rain
11:14 PM 44.6 °F 40.7 °F 44.6 °F 100% 29.82 in 4.0 mi West 6.9 mph - 0.01 in Rain Light Rain
11:23 PM 44.6 °F 37.8 °F 41.0 °F 87% 29.83 in 5.0 mi West 15.0 mph 23.0 mph 0.02 in Rain Light Rain
11:32 PM 42.8 °F 35.8 °F 39.2 °F 87% 29.85 in 9.0 mi West 13.8 mph 23.0 mph 0.02 in Rain Light Rain
11:53 PM 41.0 °F 33.9 °F 39.0 °F 93% 29.86 in 7.0 mi West 12.7 mph 19.6 mph 0.04 in Rain Light Rain
11:57 PM 41.0 °F 36.4 °F 39.2 °F 93% 29.85 in 9.0 mi WNW 6.9 mph 19.6 mph 0.00 in Rain Light Rain